Location: ???????
(55.3754°N, 39.3545°E)
Time: 21:32:58
(UTC+00:00)

Cosmos 2285 Rocket - Pass Details

Date: 14 April 2026
Orbit: 970 x 997 km, 74.0° (Epoch: 16 May)

Event Time Altitude Azimuth Distance (km) Brightness Sun altitude
Exits shadow 20:10:28 32° 212° (SSW) 1,637 4.8 -23.2°
Maximum altitude 20:13:42 84° 297° (WNW) 996 4.0 -23.4°
Drops below altitude 10° 20:20:05 10° 27° (NNE) 2,740 6.9 -23.7°
Sets 20:22:38 0° 29° (NNE) 3,688 7.7 -23.8°
